Regional Weather Roundup
Issued by NWS

Home | Current Version | Previous Version | Graphics & Text | Print | Product List | Glossary On
Versions: 1 2 3 4 5 6 7 8 9 10 11 12 13 14 15 16 17 18 19 20 21 22 23 24 25 26 27 28 29 30 31 32 33 34 35 36 37 38 39 40 41 42 43 44 45 46 47 48 49 50
000
ASUS43 KMKX 100211
RWRWI

WISCONSIN REGIONAL WEATHER ROUNDUP
NATIONAL WEATHER SERVICE MILWAUKEE/SULLIVAN WI
900 PM CDT WED JUL 09 2014

NOTE: "FAIR" INDICATES FEW OR NO CLOUDS BELOW 12,000 FEET WITH NO
SIGNIFICANT WEATHER AND/OR OBSTRUCTIONS TO VISIBILITY.

WIZ001-002-006>008-014>016-023>028-100300-
NORTHWEST WISCONSIN

CITY           SKY/WX    TMP DP  RH WIND       PRES   REMARKS
SUPERIOR ARPT  CLEAR     60  55  83 CALM      29.99S
ASHLAND        CLEAR     59  53  80 SE3       30.02R
HAYWARD        CLEAR     64  55  72 CALM      30.02R
SIREN          PTCLDY    65  57  77 CALM      30.01R
RICE LAKE      MOCLDY    67  54  63 E3        30.03R
LADYSMITH      CLEAR     62  56  79 E3        30.04R
EAU CLAIRE     CLEAR     68  56  65 CALM      30.00R
MENOMONIE      CLEAR     68  60  77 E3        30.00S
NEW RICHMOND   CLEAR     67  56  70 CALM      30.01R
OSCEOLA        CLEAR     69  60  73 CALM      30.02S
$$

WIZ003>005-009-010-017-018-100300-
NORTH CENTRAL WISCONSIN

CITY           SKY/WX    TMP DP  RH WIND       PRES   REMARKS
WOODRUFF       CLEAR     57  41  55 CALM      30.05R
RHINELANDER    CLEAR     54  49  83 CALM      30.05R
EAGLE RIVER    CLEAR     55  47  75 CALM      30.04R
LAND O LAKES   CLEAR     52  50  92 CALM      30.05R
PHILLIPS       CLEAR     59  52  78 CALM      30.04R
TOMAHAWK       CLEAR     54  50  86 CALM      30.05R
MEDFORD        CLEAR     58  53  84 E3        30.04R
MERRILL        CLEAR     59  53  80 CALM      30.04R
$$

WIZ029-030-035-036-043>047-100300-
CENTRAL WISCONSIN

CITY           SKY/WX    TMP DP  RH WIND       PRES   REMARKS
WAUSAU         CLEAR     63  49  60 CALM      30.02R
MOSINEE        CLEAR     64  48  55 VRB3      30.04R
MARSHFIELD     PTCLDY    64  51  62 E3        30.03R
STEVENS POINT  MOCLDY    60  52  76 CALM      30.04R
WAUPACA        CLEAR     64  52  64 CALM      30.03R
WAUTOMA        CLEAR     62  58  87 CALM      30.04R
WISC RAPIDS    CLEAR     64  52  64 CALM      30.04R
CAMP DOUGLAS   PTCLDY    61  59  94 CALM      30.03R
$$

WIZ011>013-019>022-031-037>040-048>050-100300-
NORTHEAST WISCONSIN

CITY           SKY/WX    TMP DP  RH WIND       PRES   REMARKS
ANTIGO         CLEAR     57  50  78 CALM      30.05R
STURGEON BAY   PTCLDY    59  52  77 S3        30.03R
GREEN BAY      CLEAR     62  54  74 CALM      30.02R
MANITOWOC      CLEAR     59  52  77 SW3       30.04R
APPLETON       PTCLDY    63  46  55 CALM      30.03R
CLINTONVILLE   CLEAR     61  52  72 CALM      30.03R
OSHKOSH        CLEAR     64  51  62 N3        30.02R
$$

WIZ032>034-041-042-053>061-100300-
SOUTHWEST WISCONSIN

CITY           SKY/WX    TMP DP  RH WIND       PRES   REMARKS
LA CROSSE      CLEAR     71  55  56 E3        30.00R
SPARTA         CLEAR     63  56  77 CALM      30.03R
VIROQUA        FAIR      67  54  63 CALM      30.04R
BOSCOBEL       CLEAR     66  57  72 CALM      30.02R
PRAIRIE DU CHI CLEAR     67  57  71 CALM      30.01S
PLATTEVILLE    FAIR      69  55  60 CALM      30.04S
$$

WIZ056-057-062-063-064-067-068-100300-
SOUTH CENTRAL WISCONSIN

CITY           SKY/WX    TMP DP  RH WIND       PRES   REMARKS
BARABOO/DELLS  CLEAR     63  54  70 CALM      30.03R
LONE ROCK      CLEAR     67  58  72 CALM      30.02S
WATERTOWN      CLEAR     64  54  69 CALM      30.03R
MADISON        PTCLDY    63  53  70 CALM      30.03R
MIDDLETON      FAIR      63  57  82 CALM      30.03S
MONROE         CLEAR     68  52  56 N3        30.04R
JANESVILLE     CLEAR     70  48  46 CALM      30.02R
$$

WIZ051-052-058>065-066-070>072-100300-
SOUTHEAST WISCONSIN

CITY           SKY/WX    TMP DP  RH WIND       PRES   REMARKS
MILWAUKEE      PTCLDY    62  55  77 E3        30.03R
WAUKESHA       PTCLDY    64  48  55 NW3       30.03S
MILWAUKEE/TIMM CLEAR     66  54  63 E3        30.03R
RACINE         CLEAR     63  55  75 S6        30.04R
BURLINGTON     CLEAR     59  54  84 CALM      30.03R
KENOSHA        CLEAR     63  57  81 CALM      30.03R
FOND DU LAC    CLEAR     62  53  72 CALM      30.03R
SHEBOYGAN      CLEAR     59  54  83 E3        30.03R
WEST BEND      PTCLDY    63  52  67 CALM      30.03S
JUNEAU         CLEAR     64  39  40 N3        30.04S
$$

LSZ147-162-100300-
LAKE SUPERIOR

STATION/POSITION TIME  TEMP    WIND        PRES    WAVE
                       AIR SEA DIR/SP/G            HT/PER
                 (UTC) (F)     (DEG/KT/KT) (MB)    (FT/S)
W MID LAKE BUOY  0150   45 38  210/  8/  8 1016.3R   0
DEVILS ISLAND    0200   62     160/  7/  8 1016.1R
PORT WING        0100   75      CALM  /  1 1015.6
SAXON HARBOR     0100             CALM     1016.3S
$$

LMZ867-665-643>646-100300-
LAKE MICHIGAN

STATION/POSITION TIME  TEMP    WIND        PRES    WAVE
                       AIR SEA DIR/SP/G            HT/PER
                 (UTC) (F)     (DEG/KT/KT) (MB)    (FT/S)
N MID LAKE BUOY  0150   57 54  290/  4/  4 1016.5R   0
NORTHPORT PIER   0100   66      CALM  /  2 1016.3R
KEWAUNEE LAKESHO 0100   55     160/  4/  5 1017.0R
SHEBOYGAN LAKESH 0200   57     180/  4/  5 1017.3R
PORT WASHINGTON  0100   63     210/  2/  4 1016.9R
ATWATER BUOY     0000   61     150/  4     1017.0R
MILWAUKEE LAKESH 0100   60      80/  2/  3   N/A
S MID LAKE BUOY  0150   59 58   CALM  /  2 1016.9R   0
KENOSHA   LAKESH 0200   62     180/  7/  8   N/A
$$

TC  - TEMPERATURE IN CELSIUS
VSB - VISIBILITY IN STATUTE MILES
WCI - WIND CHILL INDEX
HX  - HEAT INDEX



USA.gov is the U.S. government's official web portal to all federal, state and local government web resources and services.